Satellite-Ground Cal/Val Site Overpasses Predictions

Prediction of Satellite NPP Overpassing Cal/Val Site: Antarctic Dome C

Ground Cal/Val Site Location: Latitude: -75.10, Longitude: 123.35; Satellite-Ground Site NADIR distance within 100 km.

Table of predicted overpasses for the next 14.0 days since TLE Epoch: 7/24/2021
Interval Starting Time Ending Time Minimum Distance Time Minimum Distance (km)
1 07/24/2021 15:01:31 07/24/2021 15:01:54 07/24/2021 15:01:43 61.24
2 07/25/2021 14:42:42 07/25/2021 14:43:07 07/25/2021 14:42:54 48.00
3 07/26/2021 07:44:23 07/26/2021 07:44:43 07/26/2021 07:44:33 71.90
4 07/27/2021 07:25:31 07/27/2021 07:25:58 07/27/2021 07:25:45 35.84
5 07/29/2021 15:08:02 07/29/2021 15:08:05 07/29/2021 15:08:03 99.25
6 07/30/2021 14:48:59 07/30/2021 14:49:28 07/30/2021 14:49:13 12.38
7 08/01/2021 07:31:50 08/01/2021 07:32:20 08/01/2021 07:32:05 1.10
8 08/04/2021 14:55:19 08/04/2021 14:55:48 08/04/2021 14:55:34 24.73
9 08/05/2021 14:36:38 08/05/2021 14:36:54 08/05/2021 14:36:46 82.49
